Terminal Aerodrome Forecast
Issued by NWS

Home | Current Version | Previous Version | Text Only | Print | Product List | Glossary On
Versions: 1 2 3 4 5 6 7 8 9 10 11 12 13 14 15 16 17 18 19 20 21 22 23 24 25 26 27 28 29 30 31 32 33 34 35 36 37 38 39 40 41 42 43 44 45 46 47 48 49 50
000
FTAK31 PANC 242331
TAFASN
TAF
PASN 242331Z 2500/2524 13014KT 5SM BR SCT025 BKN040
     FM250300 11014G20KT 5SM -RA BR OVC015
     FM250900 16014KT 5SM -RA BR BKN010
     FM251200 21015G22KT P6SM -SHRA BKN035=

USA.gov is the U.S. government's official web portal to all federal, state and local government web resources and services.